作者查詢 / smartguy
作者 smartguy 在 PTT 全部看板的留言(推文), 共10276則
限定看板:全部
看板排序:
全部Dodgers5465BLAZERS3738Baseball392NBA208MLB178SportLottery41Monkeys14YCJH_30314Kings13HCKuo12NBA_Film12Diamondbacks11Mavericks10Cardinals8Thunder7basketballTW6CLHu6Padres6UTAH-JAZZ6C_Anthony5Hsinchu5Indians5MiamiHeat5Elephants4Knicks4Nuggets4PHX-Suns4S.H.E4Tsao4AirForce3Cavaliers3G-S-WARRIORS3Pelicans3Raptors3T-mac3Wei-Lun3Cobras2Hawks2Mariners2marvel2NY-Mets2Pirates2Rockets2Rockies2SFGiants2Spurs2SYSOP2ASIA-uni1ChicagoBulls1ck55th3051CMWang1ESP1FJU-Stat95A1FJU_Chiayun1Gossiping1graduate1Grizzlies1Guardians1Health1HSNU_11151HSNU_11461ILSH-943131ILSH-963131KS94-3091LaClippers1Lions1MIN-Twins1MUSTMIS1Nets1NTUEE1111NTUEE_Lab4261NTUST-EE-B951NTUST_Talk1NTUSTMIS_M951NTUT_EE491A1NUU_Talk1Olympics_ISG1Orl-Magic1PACERS1paranormal1Pistons1PttEarnMoney1Rays1RedSox1Tech_Job1Timberwolves1TKU-IE941TKU_EW94B1TNFSH96101<< 收起看板(89)
1F推:標題分數錯了唷^^10/01 21:46
8F推:shit!!!小教練該是考慮他夠不夠格當季後第一號先發了09/29 03:18
10F→:雖然現在能不能進季後都成了問題09/29 03:19
12F→:可以換投手了....實在是沒信心09/29 03:20
14F→:不知Billingsley能不能上來接替09/29 03:21
20F推:有機會了...趕快追分吧09/29 03:30
22F推:GS!!!!!!!!!!!!!!!09/29 03:35
24F→:Lonely!!!!!!水啊09/29 03:36
28F→:Loney才對.....打錯 Orz09/29 03:36
35F推:挨...想說Penny本季前5次遇上ROX都贏,可以擺脫低潮的說09/29 03:39
38F推:今天小日本人2次都無人出局就上壘...Orz09/29 03:42
39F推:Billingsley控球也Penny化了,保送無人出局12壘有人09/29 03:44
43F推:化解危機,還好剛剛逆轉的氣勢沒被吐回去09/29 03:49
49F推:金炳賢控球也不穩了,一舉打爆他吧09/29 03:56
51F→:今天是怎樣,雙方先發投手都提前下場09/29 03:57
54F推:豬被保送擠回一分XD09/29 04:01
63F推:今天寂寞詹姆斯發飆了,宣布他以後再也不寂寞了09/29 04:05
65F推:今天兩隊前3局共6個半局的第一個上來打者都全部上壘09/29 04:10
69F推:真是憂喜參半.......囧09/29 04:20
72F推:Billingsley局局都有保送和安打,壞球都比好球多了09/29 04:31
75F推:要爆了..........09/29 04:34
81F推:連4棒敲安打 囧09/29 04:38
84F→:連五了...09/29 04:39
86F→:今天比賽就真的是Coors Fielid的特色了09/29 04:39
87F→:Billingsley狀況並沒有比Penny好多少09/29 04:40
90F推:笑說才第4局就上來第4次了....09/29 04:43
92F→:這局打一輪了@@",有沒有這麼歡樂啊09/29 04:44
95F推:炸囉09/29 04:46
99F→:Sele上了,反正每個中繼群都很抖已經習慣了09/29 04:47
102F推:今天讓我想起之前對小熊領先7分的那一場09/29 04:50
104F→:投手都找不到好球帶....唉09/29 04:51
115F推:今天是不是要得15分才會贏啊09/29 04:56
124F推:可能是Gameday發生錯誤,無人出局滿壘才對09/29 05:02
129F→:這次就真的9:10了XD09/29 05:03
139F→:Loney今天真神,不得不拜 <(_ _)>09/29 05:05
147F推:無人出局滿壘沒得分.....真不是普通的Fxxx09/29 05:09
156F推:Hendrickson!!!該是證明你在道奇的價值了09/29 05:13
158F→:有贏的機會一定會上吧,在這關鍵排名割喉戰09/29 05:14
162F推:幾乎每個打者都投到3壞球09/29 05:18
169F→:落磯今天打14支安打外加8個BB彈,豈有不爆的道理09/29 05:19
176F推:連Lofton都敲全壘打了XD09/29 05:23
177F→:又一發09/29 05:24
178F→:B2B了 水啊09/29 05:24
187F→:Coors球場不是說今年已不是投手墳場了09/29 05:25
190F→:看來今天有打回球場以往該有的特色09/29 05:27
198F推:那也要撐到壯漢上來才行...Orz09/29 05:32
206F推:輪到今天最hot的人上來打了09/29 05:34
208F→:差一知triple09/29 05:34
214F推:今天他有嗑藥唷....09/29 05:38
217F→:單場9RBI有沒有破躲人隊史紀錄啊......Orz09/29 05:39
220F→:落磯第8位投手上了@@09/29 05:40
227F推:今天要領先10分才保險09/29 05:43
240F推:真是禮尚往來啊,太歡樂了09/29 05:45
242F→:打不完了XD09/29 05:47
252F推:連失誤都有了,想說這場大爛戰中沒有失誤的說09/29 05:49
256F→:今天若沒有3次DP得分肯定破2009/29 05:50
261F推:又BB....司空見慣了09/29 05:53
267F→:該說不怕不怕嗎?有7分的領先 囧09/29 05:54
297F推:打線要趕下班了09/29 06:04
13F推:壞消息,費城又贏了教士現在又領先中09/25 06:09
14F推:看到最近的打擊和投手群的狀況感覺季後賽越來越遠了09/25 06:25
15F推:教士贏了,教士和費城都不約而同的在系列賽中Sweep09/25 06:31
16F→:壯漢連3K,今天沙漠蛇已嘗了11K了09/25 06:32
17F推:K士官長被K,這系列賽真是囧09/25 06:39
19F推:自由揮擊者揮了3棒都只揮到空氣09/25 06:41
4F推:真雖,一個補逸送了一分09/24 10:45
9F推:單局4K09/24 10:50
13F推:Penny不行了,該不會又要上演上次對教士的打擊混戰09/24 11:00
16F推:前3局投完67球.....Orz09/24 11:10
17F推:又來了,打線又開啟幫隊方投手省球數模式了09/24 11:13
24F推:看到隔壁教士的投手陣容就是一整個羨慕09/24 12:23
25F→:失分全國聯最低大聯盟第二僅次於老虎,以前的躲人不也是降09/24 12:25
30F推:教士主場投手防禦率3.82,客場4.0209/24 12:33
31F→:這就真的能說明他們投手陣容真是穩定09/24 12:34
85F推:===============宇宙體育的領導者 公視================09/24 13:51
41F推:今天再輸不僅最近5個series沒拿下,跟大都會和教士打平09/21 12:38
42F→:剩下3個series分別輸給釀酒人,小熊,海盜,真是好笑09/21 12:39
43F→:一字排開剛好是中區倒數的3隻球隊,明明賽程對我們有利..09/21 12:40
81F推:剩最後10場,乾脆把季後賽讓給費城好了09/21 13:18
82F→:在季後賽前狀況這麼糟去打季後賽有何意義09/21 13:18
79F推:已經連續4個series都沒拿下來了,該不會連海盜也拿不下吧09/20 12:06
82F推:Dessens上來都投的不錯,唯一的敗筆.........唉09/20 12:14
87F→:主場限定版的Tomko是叫假的嗎......囧09/20 12:27
91F推:shit!!拼外卡算了,反正第一輪不會遇到永遠打不好的紅鳥09/20 12:29
94F推:隔壁教士贏了,西區王座該還的還是得還回去09/20 12:41
1F→:才剛打完就被前2次都被三振的Branyan敲Solo HR><09/18 05:51
2F→:Lowe前6局投完用了103球只失一分8K,打線快振作啦09/18 05:54
3F→:打線還真的不是普通的便泌啊..........09/18 05:59
4F→:落磯.巨人,響尾蛇都拿教士小進補,我們卻被教士大進補09/18 06:02
5F→:6局結束0:1落後09/18 06:03
6F→:好消息是下一局不會在看到Young了,已投了108球了09/18 06:03
7F→:Lowe續投第7局,看來中繼群小教練已經不信任了09/18 06:04
8F→:Lowe奮勇投完第7局共115球9K失一分,這樣沒勝投豈沒天理09/18 06:09
11F推:一上壘就給他狂盜啊,教士的罩門在捕手09/18 06:19
12F推:囧....Lugo被三球三振,Lowe真悲情又無關勝敗了09/18 06:21
13F推:Kent8下 lead off single09/18 06:34
14F推:豬 界外飛球死 自由揮擊者 豪邁的被三振 囧09/18 06:39
15F推:Ethier纏鬥許久仍然領K,今天唯一上壘是靠保送09/18 06:43
16F→:火球男上了09/18 06:45
17F推:失分了,不樂觀了,大概今天王位換人坐坐看了09/18 06:54
19F→:早知就不起床看了,睡覺去09/18 06:56
106F推:今年躲人後來居上的比賽幾乎沒有,倒是被逆轉的比賽不少09/17 12:27
108F→:讓我懷念起2004年的躲人,那年逆轉的比賽超多還是國聯第一09/17 12:28
112F推:至少那年的打線越到後半段韌性越強,今年都是提早下班制09/17 12:35
117F推:這就是躲人出產的打者,沒有眼睛無法判斷09/17 12:38
126F推:別忘了今天費城也贏了,也只落後我們2場09/17 13:00
130F推:任何教士的投手對到我們感覺每位都是Peavy09/17 13:07
131F→:近11場對SD的得分:1 3 7 6 3 3 2 0 2 3 209/17 13:08
132F→:只有2場破3分,得6分的那場還沒有贏,投手不發威沒贏的道理09/17 13:09
50F→:今天Lugo單場3隻3的表現強烈顯示他不想在繼續溫板凳了09/16 12:32
60F推:最近中繼投手群似乎出了很大的問題09/16 12:44
63F→:才剛誇讚Lugo,Lugo就失誤了 囧09/16 12:45
67F推:今天完全不把老朋友Piazza放在眼裡,能盜就盜XD09/16 12:53
71F推:Ethier2out滿壘上來代打,這是你擺脫低潮的好機會09/16 12:59
81F推:終止對SD六連敗和主場對SD五連敗,對SD一勝盼了很久09/16 13:17
83F推:明天Billingsley一有什麼差錯,Stults會在後待命的09/16 13:26